TimeCEST,TemperatureF,Dew PointF,Humidity,Sea Level PressureIn,VisibilityMPH,Wind Direction,Wind SpeedMPH,Gust SpeedMPH,PrecipitationIn,Events,Conditions,WindDirDegrees,DateUTC
12:00 AM,68.0,42.8,40,29.89,-9999.0,Variable,2.3,-,N/A,,Clear,0,2014-05-03 22:00:00
12:30 AM,66.2,41.0,40,29.89,-9999.0,Calm,Calm,-,N/A,,Clear,0,2014-05-03 22:30:00
1:00 AM,66.2,41.0,40,29.89,-9999.0,Variable,1.2,-,N/A,,Clear,0,2014-05-03 23:00:00
2:00 AM,64,43,35,29.92,,SSE,2.3,,,,,160,2014-05-04 00:00:00
4:30 AM,57.2,51.8,82,29.89,-9999.0,SE,1.2,-,N/A,,Clear,130,2014-05-04 02:30:00
5:00 AM,56,51,78,29.90,19,SE,3.5,,,,,140,2014-05-04 03:00:00
5:00 AM,55.4,51.8,88,29.89,-9999.0,SE,3.5,-,N/A,,Clear,130,2014-05-04 03:00:00
5:30 AM,57.2,51.8,82,29.89,-9999.0,Calm,Calm,-,N/A,,Clear,0,2014-05-04 03:30:00
6:00 AM,55.4,51.8,88,29.89,-9999.0,Variable,2.3,-,N/A,,Clear,0,2014-05-04 04:00:00
6:30 AM,55.4,51.8,88,29.89,-9999.0,Variable,1.2,-,N/A,,Clear,0,2014-05-04 04:30:00
7:00 AM,55.4,51.8,88,29.89,-9999.0,South,1.2,-,N/A,,Clear,190,2014-05-04 05:00:00
7:30 AM,55.4,50.0,82,29.89,-9999.0,Variable,2.3,-,N/A,,Clear,0,2014-05-04 05:30:00
8:00 AM,57,50,69,29.92,19,NE,5.8,,,,,40,2014-05-04 06:00:00
8:00 AM,57.2,50.0,77,29.92,-9999.0,NE,4.6,-,N/A,,Clear,50,2014-05-04 06:00:00
8:30 AM,57.2,50.0,77,29.92,-9999.0,NE,5.8,-,N/A,,Clear,40,2014-05-04 06:30:00
9:00 AM,59.0,50.0,72,29.92,-9999.0,NNE,2.3,-,N/A,,Clear,30,2014-05-04 07:00:00
9:30 AM,64.4,48.2,56,29.92,-9999.0,Variable,2.3,-,N/A,,Clear,0,2014-05-04 07:30:00
10:00 AM,68.0,44.6,43,29.92,-9999.0,ENE,4.6,-,N/A,,Clear,60,2014-05-04 08:00:00
10:30 AM,71.6,41.0,33,29.92,-9999.0,East,4.6,-,N/A,,Clear,80,2014-05-04 08:30:00
11:00 AM,75,44,22,29.93,19,ENE,8.1,,,,Clear,60,2014-05-04 09:00:00
11:00 AM,73.4,41.0,31,29.92,-9999.0,ENE,8.1,-,N/A,,Clear,60,2014-05-04 09:00:00
11:30 AM,75.2,41.0,29,29.92,-9999.0,ENE,8.1,-,N/A,,Clear,60,2014-05-04 09:30:00
12:00 PM,77.0,41.0,28,29.92,-9999.0,NE,8.1,-,N/A,,Clear,50,2014-05-04 10:00:00
12:30 PM,78.8,39.2,24,29.92,-9999.0,East,9.2,-,N/A,,Clear,80,2014-05-04 10:30:00
1:00 PM,80.6,41.0,24,29.92,-9999.0,ENE,9.2,-,N/A,,Clear,60,2014-05-04 11:00:00
1:30 PM,80.6,41.0,24,29.89,-9999.0,ENE,8.1,-,N/A,,Clear,70,2014-05-04 11:30:00
2:00 PM,84,41,13,29.89,19,East,3.5,,,,Clear,90,2014-05-04 12:00:00
2:00 PM,82.4,41.0,23,29.89,-9999.0,East,5.8,-,N/A,,Clear,80,2014-05-04 12:00:00
2:30 PM,82.4,37.4,20,29.89,-9999.0,ENE,8.1,-,N/A,,Clear,60,2014-05-04 12:30:00
3:00 PM,84.2,37.4,19,29.86,-9999.0,East,5.8,-,N/A,,Clear,80,2014-05-04 13:00:00
3:30 PM,86.0,33.8,15,29.86,-9999.0,ENE,6.9,-,N/A,,Clear,60,2014-05-04 13:30:00
4:00 PM,86.0,33.8,15,29.86,-9999.0,East,4.6,-,N/A,,Clear,80,2014-05-04 14:00:00
4:30 PM,86.0,33.8,15,29.83,-9999.0,East,4.6,-,N/A,,Clear,90,2014-05-04 14:30:00
5:00 PM,89,35,7,29.84,19,East,6.9,,,,Clear,90,2014-05-04 15:00:00
5:00 PM,86.0,35.6,17,29.83,-9999.0,NE,3.5,-,N/A,,Clear,50,2014-05-04 15:00:00
5:30 PM,87.8,30.2,13,29.83,-9999.0,NE,5.8,-,N/A,,Clear,50,2014-05-04 15:30:00
6:00 PM,86.0,33.8,15,29.83,-9999.0,ENE,2.3,-,N/A,,Clear,60,2014-05-04 16:00:00
6:30 PM,86.0,33.8,15,29.80,-9999.0,East,3.5,-,N/A,,Clear,100,2014-05-04 16:30:00
7:00 PM,86.0,35.6,17,29.80,-9999.0,ENE,2.3,-,N/A,,Clear,70,2014-05-04 17:00:00
7:30 PM,87.8,33.8,15,29.80,-9999.0,Calm,Calm,-,N/A,,Clear,0,2014-05-04 17:30:00
8:00 PM,87,39,10,29.81,19,ESE,4.6,,,,Clear,110,2014-05-04 18:00:00
8:00 PM,86.0,39.2,19,29.80,-9999.0,Variable,2.3,-,N/A,,Clear,0,2014-05-04 18:00:00
8:30 PM,84.2,41.0,22,29.80,-9999.0,Variable,2.3,-,N/A,,Clear,0,2014-05-04 18:30:00
9:00 PM,82.4,42.8,25,29.80,-9999.0,Calm,Calm,-,N/A,,Clear,0,2014-05-04 19:00:00
9:30 PM,77.0,46.4,34,29.80,-9999.0,Calm,Calm,-,N/A,,Clear,0,2014-05-04 19:30:00
10:00 PM,75.2,46.4,36,29.83,-9999.0,South,2.3,-,N/A,,Clear,180,2014-05-04 20:00:00
10:30 PM,75.2,46.4,36,29.83,-9999.0,SSW,6.9,-,N/A,,Clear,210,2014-05-04 20:30:00
11:00 PM,74,47,27,29.86,19,SW,10.4,,,,Clear,220,2014-05-04 21:00:00
11:00 PM,73.4,48.2,41,29.86,-9999.0,SW,9.2,-,N/A,,Clear,220,2014-05-04 21:00:00
11:30 PM,73.4,46.4,38,29.86,-9999.0,SW,8.1,-,N/A,,Clear,230,2014-05-04 21:30:00